Location: Aula-Vintri
(58.3875°N, 22.4322°E)
Time: 10:55:33
(UTC+00:00)

Nadezhda 3 Rocket - Pass Details

Date: 13 October 2019
Orbit: 957 x 999 km, 82.9° (Epoch: 11 November)

Event Time Altitude Azimuth Distance (km) Brightness Sun altitude
Rises 17:18:55 0° 196° (SSW) 3,673 7.1 -14.8°
Reaches altitude 10° 17:21:25 10° 198° (SSW) 2,735 6.4 -15.2°
Maximum altitude 17:27:43 77° 285° (WNW) 1,023 4.2 -16.0°
Drops below altitude 10° 17:34:07 10° 11° (NNE) 2,777 6.4 -16.8°
Sets 17:36:40 0° 13° (NNE) 3,733 7.1 -17.1°
